[[{"header":{"parameterUnit":"m.s-1","parameterCategory":1,"la1":30.2991,"la2":30.254,"lo1":-89.0895,"lo2":-89.0444,"dy":0.0017,"dx":0.0017,"nx":28,"ny":28,"refTime":"2025-06-07T09:00:00:Z","depth":0,"parameterNumber":2,"parameterNumberName":"U-component_of_WINDS"},"data":[0,0,0,0,0,0,0,0,0,0,0,0,0,0,0,0,0,0,0,0,0,0,0,0,0,0,0,0,0,0,0,0,0,0,0,0,0,0,0,0,0,0,0,0,0,0,0,0,0,0,0,0,0,0,0,0,0,0,1.4103,1.4105,0,1.4245,1.4246,1.4248,1.4317,1.4316,1.4316,1.4316,1.4465,1.4468,1.4472,0,0,0,0,0,0,0,0,0,0,0,0,0,1.3898,1.3902,1.4103,1.4105,1.4107,1.4244,1.4246,1.4248,1.4317,1.4316,1.4316,1.4316,1.4463,1.4468,1.4473,0,0,0,0,0,0,0,0,0,0,0,0,0,1.4008,1.3903,1.4103,1.4157,1.4164,1.4244,1.4246,1.4249,1.4317,1.4316,1.4316,1.4316,1.4462,1.4467,1.4473,1.4511,0,0,1.4492,1.4494,0,0,0,0,0,0,0,0,1.4002,1.4016,1.4148,1.4154,1.4161,1.4263,1.4228,1.4337,1.4317,1.4259,1.4316,1.4316,1.4398,1.4409,1.4436,1.4518,1.4525,1.4492,1.4496,1.4498,1.45,0,0,0,0,0,0,0,1.3994,1.401,1.4159,1.415,1.4158,1.4177,1.4192,1.4249,1.4327,1.4264,1.4269,1.4285,1.4401,1.443,1.444,1.4527,1.4492,1.4497,1.4501,1.4503,1.4652,1.4652,0,0,0,0,0,0,1.3977,1.4003,1.4155,1.4164,1.4079,1.418,1.4198,1.423,1.4326,1.4341,1.4284,1.4287,1.442,1.4433,1.4445,1.4498,1.4498,1.4504,1.4507,1.4651,1.4652,1.4652,0,0,0,0,0,0,1.3972,1.399,1.4149,1.4085,1.4107,1.4184,1.422,1.4233,1.4261,1.4342,1.4357,1.4299,1.442,1.4437,1.4495,1.4504,1.4507,1.4512,1.4651,1.4651,1.4652,1.4603,0,0,0,0,0,0,1.3966,1.3988,1.4001,1.4085,1.411,1.4195,1.422,1.4236,1.4271,1.4276,1.4359,1.4373,1.4421,1.4486,1.4501,1.4512,1.4517,1.465,1.4651,1.4652,1.4604,1.4602,1.4599,0,0,0,0,0,1.3959,1.3982,1.4002,1.402,1.4128,1.4195,1.421,1.4263,1.4271,1.4287,1.434,1.4371,1.45,1.4491,1.4509,1.4522,1.465,1.4651,1.4652,1.4605,1.4602,1.46,0,0,0,0,0,0,1.3898,1.3994,1.4017,1.4067,1.4122,1.4206,1.4227,1.4258,1.4313,1.4315,1.4381,1.4399,1.4452,1.4493,1.4481,1.4566,1.4579,1.4583,1.4537,1.4535,1.4533,1.4522,1.4522,0,0,0,0,0,1.3891,1.3935,1.4017,1.4054,1.4081,1.4149,1.418,1.4217,1.4277,1.4301,1.4358,1.4416,1.4471,1.4505,1.4559,1.461,1.4631,1.4629,1.4626,1.4624,1.4627,1.466,1.4661,1.4655,1.4655,1.4655,0,0,1.3876,1.3933,1.3958,1.4044,1.4091,1.4138,1.4168,1.4216,1.4252,1.4309,1.4367,1.4411,1.4481,1.4536,1.4564,1.4572,1.4634,1.4625,1.4623,1.4628,1.4661,1.4662,1.4662,1.4655,1.4655,1.4655,0,0,1.3873,1.392,1.3957,1.4004,1.4075,1.4121,1.413,1.421,1.4241,1.4301,1.4345,1.439,1.4482,1.453,1.4567,1.4586,1.4617,1.4602,1.459,1.4622,1.4622,1.4623,1.4632,1.4634,1.4605,1.4605,1.4604,0,1.3845,1.3916,1.3973,1.4019,1.4056,1.411,1.415,1.4193,1.4278,1.4304,1.4312,1.443,1.448,1.4549,1.4554,1.4581,1.4596,1.4593,1.4617,1.4619,1.462,1.463,1.4632,1.4602,1.4603,1.4603,1.4603,0,1.3881,1.393,1.3952,1.4033,1.4073,1.4115,1.418,1.4214,1.4249,1.4294,1.4356,1.4419,1.4488,1.4507,1.4541,1.4582,1.4585,1.4604,1.4619,1.4618,1.4628,1.4631,1.4599,1.46,1.4601,1.4601,0,0,1.3842,1.3955,1.3963,1.4001,1.4085,1.4125,1.4171,1.4238,1.4268,1.4325,1.4367,1.4445,1.4464,1.4506,1.4546,1.4573,1.4587,1.459,1.4592,1.4588,1.4639,1.4624,1.4627,1.4608,1.4609,1.461,1.4633,0,1.3852,1.3936,1.399,1.4053,1.4101,1.4154,1.4195,1.4252,1.4296,1.4345,1.4395,1.4449,1.4469,1.4495,1.4524,1.4578,1.4598,1.4578,1.465,1.4652,1.4631,1.4632,1.4617,1.4636,1.4637,1.4638,1.4638,0,1.3874,1.3931,1.3999,1.408,1.4102,1.4138,1.4205,1.425,1.4317,1.4348,1.4395,1.4436,1.449,1.4499,1.4575,1.456,1.4593,1.4625,1.4627,1.4637,1.4645,1.4643,1.4643,1.4646,1.4645,1.4644,1.4644,0,1.3841,1.3935,1.3989,1.402,1.4115,1.4139,1.4181,1.4247,1.4285,1.4345,1.4371,1.4435,1.4471,1.4522,1.458,1.4581,1.4651,1.4665,1.468,1.4679,1.4693,1.4691,1.4699,1.4712,1.4712,1.4712,1.4712,0,1.3847,1.3887,1.3976,1.4008,1.4056,1.4119,1.4165,1.421,1.427,1.4314,1.4364,1.4405,1.4479,1.453,1.4576,1.4634,1.4649,1.4677,1.4689,1.4673,1.467,1.4696,1.4697,1.4713,1.4712,1.4712,1.4712,0,1.3818,1.3879,1.3941,1.4027,1.405,1.4081,1.4156,1.4191,1.4239,1.4295,1.4312,1.4388,1.445,1.4513,1.4598,1.4629,1.4686,1.4702,1.4663,1.467,1.4682,1.4681,1.4709,1.4716,1.4722,1.4722,1.4721,0,1.3818,1.3851,1.3941,1.3974,1.4014,1.4067,1.4106,1.417,1.4209,1.4289,1.4315,1.4382,1.4438,1.4536,1.46,1.4665,1.4684,1.4689,1.4694,1.4678,1.4686,1.4684,1.4688,1.4687,1.4687,1.4686,1.4686,0,1.3813,1.3842,1.3896,1.3962,1.4008,1.4063,1.4119,1.4144,1.4219,1.4261,1.4326,1.4369,1.4457,1.4523,1.4596,1.4641,1.4677,1.4684,1.4692,1.4676,1.4653,1.4668,1.4659,1.4683,1.4684,1.4684,1.4684,1.4684,1.38,1.3833,1.3902,1.3961,1.4011,1.4064,1.4102,1.4155,1.421,1.4285,1.432,1.4385,1.4455,1.4557,1.4601,1.4654,1.4664,1.4674,1.4677,1.4679,1.4676,1.4644,1.4668,1.4668,1.4668,1.4668,1.4668,0,1.3799,1.3847,1.3901,1.3979,1.4027,1.4056,1.4122,1.416,1.4217,1.4278,1.4333,1.4408,1.4473,1.4543,1.4612,1.4642,1.466,1.4658,1.4657,1.4667,1.4662,1.465,1.4642,1.4642,1.4642,1.4642,1.4642,1.4642,1.3804,1.3861,1.3899,1.3982,1.403,1.4094,1.4129,1.4179,1.4228,1.431,1.4364,1.4409,1.4474,1.455,1.4611,1.463,1.4654,1.4647,1.4671,1.4665,1.4667,1.4669,1.4658,1.4652,1.4652,1.4672,1.4672,1.4672]},{"header":{"parameterUnit":"m.s-1","parameterCategory":1,"la1":30.2991,"la2":30.254,"lo1":-89.0895,"lo2":-89.0444,"dy":0.0017,"dx":0.0017,"nx":28,"ny":28,"refTime":"2025-06-07T09:00:00:Z","depth":0,"parameterNumber":3,"parameterNumberName":"V-component_of_WINDS"},"data":[0,0,0,0,0,0,0,0,0,0,0,0,0,0,0,0,0,0,0,0,0,0,0,0,0,0,0,0,0,0,0,0,0,0,0,0,0,0,0,0,0,0,0,0,0,0,0,0,0,0,0,0,0,0,0,0,0,0,5.9679,5.968,0,5.9747,5.9748,5.9749,5.9737,5.9736,5.9734,5.9733,5.9793,5.9796,5.9799,0,0,0,0,0,0,0,0,0,0,0,0,0,5.953,5.9533,5.9679,5.968,5.9681,5.9747,5.9748,5.9749,5.9737,5.9736,5.9734,5.9733,5.9792,5.9796,5.9799,0,0,0,0,0,0,0,0,0,0,0,0,0,5.9596,5.9534,5.9679,5.9683,5.9684,5.9747,5.9748,5.9749,5.9737,5.9736,5.9734,5.9732,5.9791,5.9795,5.9799,5.9859,0,0,5.9811,5.9813,0,0,0,0,0,0,0,0,5.9592,5.9602,5.9682,5.9683,5.9685,5.9732,5.9717,5.9786,5.9738,5.9717,5.9733,5.9731,5.9774,5.9779,5.9795,5.9862,5.9864,5.9812,5.9814,5.9816,5.9817,0,0,0,0,0,0,0,5.9588,5.9598,5.9706,5.9683,5.9685,5.9679,5.9686,5.973,5.9754,5.9719,5.9718,5.9727,5.9774,5.9791,5.9797,5.9865,5.9812,5.9815,5.9818,5.9819,5.9983,5.9985,0,0,0,0,0,0,5.9583,5.9595,5.9704,5.9708,5.9634,5.9683,5.9691,5.9718,5.9753,5.9757,5.9728,5.9726,5.9785,5.9792,5.9799,5.9871,5.9816,5.982,5.9822,5.9982,5.9984,5.9986,0,0,0,0,0,0,5.958,5.9593,5.9701,5.9651,5.9665,5.9687,5.9718,5.9721,5.9738,5.9761,5.9764,5.9742,5.9784,5.9793,5.9845,5.9873,5.9822,5.9825,5.9979,5.9982,5.9985,6.0016,0,0,0,0,0,0,5.9576,5.9592,5.9617,5.9652,5.9667,5.9749,5.972,5.9723,5.9746,5.9744,5.9775,5.9778,5.9784,5.9839,5.9849,5.9877,5.9828,5.9977,5.9981,5.9984,6.0013,6.002,6.0026,0,0,0,0,0,5.9571,5.9621,5.9619,5.9632,5.97,5.975,5.9759,5.9767,5.9749,5.9772,5.9787,5.9777,5.9868,5.9844,5.9855,5.9886,5.9975,5.998,5.9984,6.001,6.0018,6.0026,0,0,0,0,0,0,5.9585,5.9626,5.9623,5.9687,5.9716,5.9748,5.9779,5.9775,5.9807,5.9803,5.9809,5.9816,5.9869,5.9882,5.9854,5.9945,5.9919,5.9925,5.9935,5.9943,5.9949,5.9945,5.9832,0,0,0,0,0,5.9596,5.9637,5.9669,5.9722,5.9737,5.9756,5.9778,5.9782,5.981,5.9821,5.984,5.9865,5.99,5.9922,5.9955,6.0015,6.002,6.0041,6.0047,6.0053,6.0058,6.009,6.01,6.0,6.0,6.0,0,0,5.9618,5.9646,5.9671,5.9726,5.9749,5.9788,5.9766,5.9808,5.9837,5.9827,5.9878,5.9892,5.9921,5.9977,6.0002,5.999,6.0087,6.0058,6.0062,6.0065,6.0096,6.0105,6.0114,6.0003,6.0003,6.0002,0,0,5.9679,5.9705,5.9752,5.9776,5.9813,5.9825,5.9836,5.987,5.988,5.9932,5.9925,5.9958,6.0017,6.0038,6.0056,6.0127,6.0118,6.0137,6.0171,6.0202,6.021,6.0217,6.0242,6.0251,6.0142,6.0142,6.0143,0,5.9701,5.9764,5.9776,5.982,5.9844,5.9841,5.9887,5.9909,5.9952,5.9967,5.9953,6.0028,6.0047,6.0108,6.0126,6.0141,6.0152,6.0133,6.0209,6.0216,6.0222,6.0246,6.0255,6.0144,6.0144,6.0144,6.0144,0,5.9789,5.9833,5.9866,5.9913,5.994,5.9985,6.0001,6.0027,6.0028,6.0041,6.0093,6.0116,6.0154,6.0169,6.0169,6.023,6.0221,6.0208,6.0181,6.0234,6.0256,6.0265,6.0147,6.0147,6.0146,6.0146,0,0,5.986,5.9915,5.9926,5.9948,5.9988,6.002,6.0064,6.0104,6.0126,6.0156,6.0192,6.0243,6.0232,6.0252,6.0255,6.0283,6.0337,6.0266,6.0267,6.0278,6.0404,6.0414,6.0425,6.0332,6.0334,6.0335,6.0402,0,5.9925,6.0007,6.0019,6.009,6.013,6.0127,6.0165,6.0192,6.0206,6.0239,6.0252,6.0288,6.0271,6.0283,6.0311,6.0324,6.0362,6.032,6.0363,6.0364,6.0356,6.0436,6.0446,6.0509,6.0411,6.0412,6.0413,0,6.0011,6.0048,6.0124,6.016,6.0177,6.0212,6.025,6.0283,6.0312,6.032,6.0345,6.0344,6.0387,6.036,6.0418,6.0389,6.0407,6.0416,6.0419,6.0423,6.0392,6.0442,6.0528,6.0538,6.0427,6.0426,6.0425,0,6.0055,6.0123,6.0178,6.0196,6.0239,6.0264,6.0282,6.0311,6.0335,6.0367,6.0382,6.0417,6.0436,6.0462,6.0471,6.045,6.0528,6.0501,6.0534,6.0534,6.055,6.0549,6.0641,6.0562,6.0562,6.0562,6.0562,0,6.0126,6.0172,6.0199,6.0232,6.0284,6.0296,6.0345,6.0362,6.0388,6.0423,6.0421,6.0453,6.0463,6.0495,6.0501,6.0549,6.0557,6.0563,6.0564,6.0563,6.0562,6.0575,6.057,6.0565,6.0564,6.0564,6.0563,0,6.0183,6.0203,6.0263,6.03,6.031,6.0347,6.0377,6.0408,6.0421,6.0465,6.0476,6.0496,6.0535,6.0546,6.0591,6.0595,6.0651,6.0648,6.0642,6.0642,6.0674,6.0671,6.0776,6.0791,6.0703,6.0704,6.0705,0,6.0227,6.0264,6.0306,6.0332,6.0352,6.0392,6.0418,6.043,6.0456,6.0494,6.052,6.0559,6.0591,6.0652,6.0669,6.0703,6.0701,6.0736,6.0706,6.0704,6.0701,6.0699,6.0703,6.0741,6.0742,6.0743,6.0743,0,6.0303,6.0312,6.035,6.0393,6.0424,6.0457,6.0489,6.0508,6.0525,6.0554,6.0595,6.0621,6.0669,6.0707,6.0742,6.0757,6.0753,6.0753,6.0762,6.0762,6.0757,6.076,6.0657,6.075,6.0749,6.0749,6.0749,6.0748,6.0355,6.0388,6.0424,6.0467,6.0493,6.0523,6.0554,6.0573,6.061,6.0653,6.0657,6.0701,6.073,6.0777,6.0795,6.0828,6.0818,6.0831,6.0834,6.0838,6.0841,6.0752,6.0834,6.0834,6.0834,6.0834,6.0834,0,6.0431,6.0455,6.0494,6.0541,6.0574,6.0571,6.0606,6.0633,6.0674,6.0702,6.0735,6.0783,6.082,6.084,6.0877,6.09,6.0898,6.0909,6.0907,6.0911,6.0848,6.0836,6.0909,6.0909,6.0909,6.0909,6.0909,6.0909,6.0474,6.053,6.0543,6.061,6.0633,6.068,6.07,6.0727,6.075,6.0805,6.0837,6.0852,6.0877,6.0915,6.0949,6.0954,6.0967,6.0979,6.0982,6.0923,6.0915,6.0908,6.0897,6.0981,6.0982,6.1042,6.1043,6.1043]}]]